Wind_Speed
25 26 26 26 26 27 26 26 26 26 26 27 26 26 26 26 25 25 26 26 26 26 26 26 26 27 27 28 29 29 30 31 31 32 32 32 32 33 33 33 33 33 34
27 27 28 28 28 28 29 28 28 27 28 28 28 27 27 26 26 27 27 27 27 27 27 27 28 28 29 29 30 30 31 32 32 32 33 33 33 34 35 35 35 35 35
29 29 29 29 29 29 29 29 29 29 29 28 28 28 28 27 28 28 28 28 28 28 28 29 29 30 31 31 32 32 33 33 34 34 34 35 35 35 35 36 37 37 36
30 30 30 31 30 30 31 30 30 30 29 29 29 29 29 29 29 29 29 29 28 29 29 30 31 32 32 33 33 34 34 35 36 36 37 37 37 38 38 38 38 38 38
32 31 32 31 31 31 31 31 31 31 30 30 30 30 30 30 30 30 29 29 30 31 32 33 33 33 34 35 35 35 35 36 37 38 38 38 39 39 39 40 40 40 40
33 33 33 32 33 33 33 32 32 32 32 31 31 31 31 31 31 31 31 32 32 33 34 35 35 35 36 37 37 37 38 39 39 39 40 40 41 41 41 42 42 43 43
35 35 34 34 34 33 33 33 33 33 33 32 33 33 33 33 33 33 34 35 35 36 37 37 37 37 38 39 39 40 40 41 42 42 42 42 42 42 43 43 44 44 45
35 35 35 35 35 35 34 34 34 34 34 35 35 35 35 35 35 35 36 37 38 38 39 39 39 39 40 41 41 42 43 43 44 44 44 44 44 44 44 44 45 45 46
36 35 35 35 36 36 35 35 35 36 36 37 37 37 37 36 36 36 37 38 39 40 40 40 41 41 42 43 43 44 45 45 46 46 46 46 46 46 46 46 46 46 47
37 36 35 35 35 36 36 36 36 36 37 38 38 38 38 39 39 38 39 40 41 41 41 42 42 43 44 44 45 46 46 47 47 48 48 48 48 48 48 48 48 48 48
36 37 37 36 36 36 37 37 37 37 38 38 38 39 40 41 41 42 41 42 42 43 44 44 45 46 47 47 47 48 48 48 48 48 49 49 50 50 50 50 50 50 50
38 38 38 38 38 39 39 40 39 39 39 40 40 41 42 43 44 44 44 45 45 46 47 47 48 48 48 49 49 49 49 49 49 50 51 51 52 52 52 52 52 51 51
40 40 39 39 40 41 41 41 41 41 41 41 42 44 45 46 46 47 48 48 48 49 49 50 50 51 50 50 50 50 50 50 51 52 52 53 53 53 53 53 53 53 52
41 41 41 40 40 41 41 41 42 43 43 44 45 46 47 48 49 50 51 51 51 51 51 52 52 52 52 51 51 51 52 52 52 53 53 54 54 54 54 54 54 54 54
40 41 41 41 41 42 42 43 44 45 45 46 47 48 49 50 51 52 53 54 54 54 53 53 53 53 53 53 53 53 53 53 54 54 55 55 56 56 56 56 56 56 56
41 42 42 42 43 43 44 44 46 46 47 48 49 50 51 53 54 55 55 56 56 56 56 54 55 55 55 55 55 55 55 55 55 56 56 57 57 58 58 58 57 57 56
43 43 44 44 45 45 46 46 48 49 50 51 52 52 53 54 54 55 56 57 57 58 58 57 57 57 57 57 57 57 57 57 58 58 59 59 59 59 58 58 57 56 55
45 45 46 47 47 48 48 49 50 51 52 52 53 54 54 55 56 57 58 58 59 60 61 59 58 59 59 59 59 59 59 60 60 59 59 59 59 58 57 56 55 55 54
46 47 48 49 49 49 50 51 51 52 53 54 55 56 57 58 58 59 60 61 62 62 62 61 60 60 60 61 61 60 60 60 60 60 59 59 57 56 55 55 54 54 53
47 48 49 50 50 51 52 52 53 54 54 55 56 57 58 59 60 61 62 62 62 62 62 62 61 61 61 61 61 61 60 60 60 59 58 57 55 54 54 53 53 52 52
48 49 50 50 51 52 52 53 54 55 56 57 58 59 60 61 61 62 62 62 62 62 62 61 61 61 61 61 61 60 60 59 58 57 55 54 53 52 52 51 51 51 50
48 49 50 51 51 52 53 54 55 56 57 58 59 60 61 61 62 62 62 62 62 62 62 62 61 60 60 59 59 59 58 57 56 54 53 52 51 51 50 50 49 49 48
49 49 50 50 51 52 53 55 57 58 59 60 61 61 61 61 62 61 61 61 61 62 62 61 60 59 58 58 58 58 57 56 54 53 51 50 50 49 48 47 47 47 46
49 50 50 51 52 53 55 57 58 59 60 61 62 62 62 61 61 61 61 61 61 60 60 60 59 58 57 57 57 56 55 54 52 51 50 48 47 47 46 45 45 44 44
51 51 52 53 54 55 57 58 59 60 61 62 62 62 62 62 62 62 62 61 60 59 58 58 57 57 56 56 55 55 54 53 51 49 48 47 45 45 44 43 43 42 42
52 53 53 54 55 56 57 59 60 61 62 62 62 62 62 62 62 62 61 60 59 58 58 57 56 56 55 55 54 53 52 51 49 47 46 45 44 43 42 41 41 41 41
Wind_Direction
274 276 277 279 281 281 281 282 284 285 287 289 289 290 291 292 292 293 293 294 293 293 292 292 291 290 288 285 283 281 280 279 279 278 277 276 275 275 274 274 273 273 273
274 276 277 279 280 281 280 281 282 283 285 286 287 289 290 291 292 293 293 293 292 291 291 291 291 290 289 288 286 284 282 280 279 278 278 277 276 275 274 274 274 273 273
274 276 277 279 281 281 281 281 281 283 284 285 286 288 289 290 292 292 293 293 292 292 292 293 292 291 290 289 288 286 283 281 279 278 278 278 277 276 276 274 274 273 272
274 276 277 280 280 280 280 280 280 281 283 284 286 287 288 289 290 291 292 293 292 292 292 293 293 292 290 290 289 288 285 282 280 279 278 278 277 277 276 275 274 273 272
273 276 279 280 280 279 280 279 279 281 282 283 285 286 287 288 289 289 290 291 292 293 293 293 293 292 290 289 289 288 285 284 282 280 279 278 278 277 276 275 274 272 272
273 276 279 278 279 279 279 279 279 281 282 282 283 285 286 287 288 289 290 291 292 293 293 293 292 291 290 289 288 288 286 284 283 282 281 279 278 278 277 275 274 272 271
274 275 276 277 277 278 279 279 279 281 281 281 283 284 285 286 287 289 290 290 291 292 293 293 291 290 289 289 288 287 286 285 283 283 283 281 280 279 278 276 274 273 272
274 277 277 277 278 278 278 278 279 280 280 281 282 282 283 284 286 288 290 291 291 292 293 292 290 290 289 288 288 287 286 285 284 284 283 281 281 280 279 277 275 274 273
275 277 278 279 279 278 278 278 278 280 281 281 281 282 283 284 285 287 289 291 293 293 292 291 292 292 291 290 289 288 287 285 284 283 282 282 281 281 280 278 277 275 273
275 277 278 278 279 279 278 278 279 280 281 281 282 282 283 284 286 287 289 291 292 293 293 292 292 292 292 291 290 288 288 286 285 283 282 281 281 280 280 279 278 276 275
276 276 276 277 278 278 279 280 280 281 281 282 282 283 283 285 286 287 289 291 292 292 292 292 292 292 292 291 290 289 288 287 285 284 283 282 281 281 280 279 278 277 276
277 277 277 278 279 281 281 282 281 281 282 282 283 284 284 285 287 288 289 289 290 291 292 292 292 292 291 291 290 288 287 286 285 284 284 283 281 281 280 279 278 277 276
277 278 279 280 280 282 282 281 281 281 282 283 284 285 286 286 287 288 289 289 290 291 291 292 291 291 291 290 290 288 287 286 286 285 284 283 282 281 279 278 277 276 275
277 279 280 280 281 282 281 280 280 281 282 284 284 285 286 286 287 288 289 290 290 290 291 291 291 291 290 290 290 289 288 287 286 285 284 283 282 281 279 278 277 276 275
279 281 281 281 283 283 282 282 282 282 283 284 285 286 287 287 288 289 290 290 290 290 290 291 291 290 290 290 289 289 288 288 287 286 285 284 282 281 279 278 278 277 275
280 281 282 283 284 284 284 283 284 284 285 285 285 286 287 288 288 289 289 290 291 291 291 291 290 290 290 290 290 289 289 288 288 287 286 284 283 281 280 279 278 277 276
279 281 282 283 284 284 283 283 284 285 285 286 287 287 288 289 289 290 290 290 291 291 291 291 290 290 289 289 289 289 289 289 288 288 287 285 284 282 280 279 278 277 276
280 281 282 284 285 285 284 284 285 286 286 287 287 288 288 289 290 290 291 290 290 290 290 290 290 289 289 289 289 289 289 289 288 288 286 285 284 282 280 279 278 277 275
281 282 283 284 285 284 285 285 285 286 287 287 288 288 289 289 290 290 291 291 290 290 290 290 289 288 288 289 289 289 289 289 288 287 286 285 283 281 280 279 278 276 275
282 283 283 284 284 285 286 286 286 287 287 288 289 290 290 290 290 291 291 291 290 290 289 289 289 289 289 289 289 289 289 289 289 288 286 284 282 281 280 278 277 276 274
283 284 284 284 286 286 286 286 287 288 289 290 290 291 291 291 291 292 291 291 290 290 289 289 289 289 289 289 289 289 289 290 289 287 285 283 282 281 280 278 277 276 274
285 285 286 286 287 287 287 288 288 289 290 291 291 291 291 291 292 292 291 291 290 290 289 289 289 289 289 288 289 289 289 289 288 286 284 283 282 281 279 278 276 275 274
286 287 288 288 288 288 288 289 290 291 291 291 292 292 291 292 292 291 291 290 290 290 290 289 289 288 288 288 288 289 289 289 288 286 284 283 282 281 278 277 276 274 273
287 288 288 289 289 289 290 290 291 292 292 292 292 292 292 292 292 291 291 291 291 290 290 289 289 288 288 288 288 289 288 288 287 286 284 283 282 280 277 276 276 274 273
287 288 289 289 290 291 291 292 292 292 293 293 293 293 292 292 292 291 291 291 290 290 289 289 288 288 288 288 288 288 288 288 287 285 283 282 281 279 277 276 276 274 272
288 289 290 291 291 291 292 292 293 293 293 293 293 293 292 292 292 292 291 290 290 289 288 288 287 287 287 287 286 286 286 286 286 284 282 282 280 279 276 275 275 273 271
Height
5825 5825 5825 5824 5824 5823 5822 5822 5821 5820 5819 5818 5816 5815 5814 5812 5811 5810 5808 5807 5805 5804 5803 5802 5800 5799 5798 5797 5796 5795 5794 5794 5793 5792 5792 5792 5792 5792 5792 5792 5792 5793 5793
5819 5819 5819 5819 5818 5817 5817 5816 5815 5814 5813 5812 5811 5810 5808 5807 5805 5804 5803 5801 5799 5798 5797 5795 5794 5793 5791 5790 5789 5788 5787 5786 5785 5785 5785 5784 5784 5784 5784 5784 5784 5785 5785
5813 5813 5813 5812 5812 5811 5810 5810 5809 5808 5807 5806 5805 5804 5802 5801 5799 5798 5796 5795 5793 5792 5790 5789 5787 5786 5784 5782 5781 5780 5779 5778 5777 5777 5776 5776 5776 5776 5775 5775 5775 5775 5776
5807 5807 5806 5806 5805 5805 5804 5803 5803 5802 5801 5800 5799 5797 5796 5795 5793 5791 5790 5788 5787 5785 5784 5782 5780 5779 5777 5775 5773 5772 5770 5770 5769 5768 5768 5767 5767 5766 5766 5766 5766 5766 5766
5800 5800 5799 5799 5798 5798 5797 5797 5796 5795 5794 5793 5792 5791 5789 5788 5786 5785 5784 5782 5780 5778 5777 5775 5773 5771 5769 5767 5765 5763 5762 5761 5760 5759 5758 5758 5757 5757 5756 5756 5756 5756 5756
5793 5793 5792 5792 5791 5791 5790 5789 5789 5788 5787 5786 5785 5784 5782 5781 5780 5778 5777 5775 5773 5771 5769 5767 5765 5763 5761 5759 5757 5755 5753 5752 5750 5749 5748 5747 5747 5746 5745 5745 5745 5745 5745
5786 5785 5785 5785 5784 5783 5783 5782 5781 5781 5780 5779 5778 5777 5775 5774 5772 5771 5769 5767 5765 5763 5761 5759 5757 5754 5752 5750 5747 5745 5743 5741 5740 5739 5738 5737 5736 5735 5734 5734 5733 5733 5733
5778 5778 5777 5777 5776 5776 5775 5774 5773 5773 5772 5771 5770 5769 5768 5767 5765 5763 5761 5759 5757 5754 5752 5750 5747 5745 5742 5740 5738 5735 5733 5731 5729 5728 5726 5725 5724 5723 5722 5721 5721 5721 5721
5770 5770 5769 5769 5768 5767 5767 5766 5765 5764 5763 5762 5761 5760 5759 5758 5757 5755 5753 5750 5747 5745 5743 5740 5737 5735 5732 5730 5727 5725 5722 5720 5718 5716 5715 5713 5712 5711 5710 5709 5709 5708 5708
5762 5761 5761 5760 5759 5759 5758 5757 5756 5755 5754 5753 5752 5750 5749 5748 5747 5746 5744 5741 5738 5735 5732 5730 5727 5724 5721 5719 5716 5713 5711 5708 5706 5704 5702 5701 5700 5699 5697 5696 5696 5695 5695
5753 5753 5752 5752 5751 5750 5750 5749 5747 5746 5745 5744 5742 5741 5739 5738 5736 5735 5733 5731 5728 5725 5722 5719 5716 5713 5710 5707 5704 5701 5698 5696 5693 5691 5689 5688 5686 5685 5684 5683 5682 5681 5681
5745 5744 5744 5743 5742 5741 5740 5739 5738 5737 5735 5734 5732 5731 5729 5727 5725 5723 5722 5720 5717 5714 5711 5707 5704 5701 5698 5695 5692 5689 5686 5683 5680 5678 5676 5674 5672 5671 5670 5668 5667 5667 5666
5736 5736 5735 5734 5733 5732 5730 5729 5728 5726 5725 5723 5722 5720 5718 5716 5713 5711 5709 5707 5705 5703 5699 5696 5692 5688 5685 5682 5678 5675 5672 5669 5667 5664 5662 5660 5658 5656 5655 5653 5652 5652 5651
5727 5726 5725 5724 5723 5722 5720 5719 5717 5716 5714 5712 5710 5708 5706 5703 5701 5698 5696 5693 5692 5690 5687 5683 5679 5675 5671 5668 5665 5662 5659 5655 5653 5650 5647 5645 5643 5641 5639 5638 5637 5636 5636
5717 5716 5715 5714 5713 5711 5710 5708 5707 5705 5703 5701 5699 5696 5693 5691 5688 5685 5682 5679 5677 5675 5674 5670 5665 5661 5657 5654 5651 5648 5644 5641 5638 5635 5632 5629 5627 5625 5623 5622 5621 5620 5619
5707 5706 5705 5703 5702 5700 5699 5697 5695 5693 5691 5689 5686 5684 5681 5678 5675 5672 5668 5665 5661 5659 5658 5656 5651 5646 5642 5639 5636 5633 5629 5626 5622 5619 5616 5613 5611 5609 5607 5605 5604 5603 5603
5696 5695 5693 5692 5690 5689 5687 5685 5683 5681 5679 5676 5673 5671 5668 5664 5661 5658 5654 5650 5646 5643 5641 5640 5636 5631 5627 5624 5620 5617 5613 5610 5606 5603 5599 5596 5594 5591 5589 5588 5587 5586 5585
5685 5683 5682 5680 5678 5676 5674 5672 5670 5668 5665 5663 5660 5657 5653 5650 5646 5642 5639 5635 5631 5627 5624 5622 5620 5615 5611 5607 5604 5600 5597 5593 5590 5586 5582 5579 5576 5574 5572 5571 5570 5569 5568
5673 5671 5670 5668 5666 5663 5661 5659 5657 5654 5652 5649 5645 5642 5638 5634 5631 5627 5623 5619 5615 5611 5606 5604 5602 5598 5594 5590 5586 5583 5580 5576 5572 5568 5565 5562 5559 5557 5555 5554 5553 5552 5552
5661 5659 5657 5654 5652 5650 5648 5645 5643 5640 5637 5634 5630 5626 5622 5618 5614 5610 5606 5602 5597 5593 5589 5586 5583 5580 5577 5572 5568 5565 5562 5558 5555 5551 5547 5544 5542 5540 5538 5537 5536 5536 5535
5648 5646 5643 5641 5638 5636 5633 5630 5628 5625 5622 5619 5615 5610 5606 5601 5597 5592 5588 5584 5579 5575 5571 5567 5565 5562 5559 5554 5551 5547 5544 5541 5537 5534 5531 5528 5526 5524 5522 5520 5519 5519 5519
5635 5633 5630 5627 5624 5621 5618 5615 5612 5610 5606 5602 5598 5594 5589 5584 5579 5574 5570 5565 5561 5557 5553 5549 5546 5543 5540 5536 5532 5529 5526 5523 5521 5518 5514 5512 5509 5508 5506 5505 5504 5503 5503
5622 5619 5616 5613 5610 5607 5603 5600 5596 5593 5590 5586 5581 5577 5572 5567 5562 5557 5553 5548 5544 5539 5535 5531 5528 5525 5522 5519 5515 5512 5509 5506 5504 5501 5498 5497 5494 5493 5491 5489 5489 5488 5488
5609 5606 5603 5599 5596 5592 5588 5584 5580 5577 5573 5569 5564 5559 5554 5550 5544 5539 5535 5531 5527 5522 5517 5513 5510 5507 5503 5500 5497 5494 5491 5489 5488 5485 5482 5481 5480 5478 5476 5475 5474 5474 5474
5595 5592 5588 5585 5581 5577 5573 5568 5564 5560 5556 5552 5547 5541 5536 5531 5526 5521 5517 5513 5509 5505 5499 5495 5492 5489 5486 5483 5479 5477 5475 5472 5471 5470 5467 5465 5465 5463 5462 5461 5460 5460 5460
5581 5577 5574 5570 5566 5562 5557 5552 5547 5543 5539 5535 5530 5524 5518 5513 5508 5502 5498 5494 5491 5487 5482 5479 5475 5472 5469 5466 5463 5460 5458 5456 5455 5455 5453 5451 5450 5448 5449 5448 5447 5446 5446